www.pogodaiklimat.ru

Погода и климат >> Архив погоды >> Иран >> Birjand


ПОГОДА в Birjand

  • Прогноз погоды в Birjand
  • Монитор погоды в Birjand
  • Климат города

АРХИВ ПОГОДЫ в Birjand

Время (UTC), дата Ветер
(напр.,м/с)
 
Видим.   Явления Облачность Т
(С)
Тd
(С)
f
(%)
Тe
(С)
Тes
(С)
Комфортность P
(гПа)
Po
(гПа)
Тmin
(С)
Tmax
(С)
R
(мм)
R24
(мм)
S
(см)
15 14.10 СЗ 5 10 км 1/1 1050 м
[Sc diur, vesp Ac lent]
+17.4 +1.1 33 +17 +17 1017.4 853.3 +22.4
18 14.10 З 2 10 км ясно +13.6 +1.7 44 +13 +13 1016.2 853.7
21 14.10 ЮВ 2 10 км ясно +11.0 +1.1 50 +10 +10 1015.8 853.4
00 15.10 ЮВ 2 10 км ясно +8.1 -0.6 54 +7 +7 1016.4 853.1
03 15.10 В 3 10 км ясно +9.0 0.0 53 +7 +7 1017.9 853.8 +6.9
06 15.10 З 2 10 км 4/1 1000 м
[Cu hum Ac cuf Cc]
+18.4 +2.7 35 +19 +25 1017.0 854.6
09 15.10 СЗ 4 10 км 8/4 1050 м
[Cu med, cong Ac As Ci sp]
+20.0 +2.4 31 +20 +23 1015.1 852.7
12 15.10 СЗ 5 10 км {ливн. осадки} 4/1 1050 м
[Cu hum Ac cuf Ci sp]
+19.0 +3.2 35 +19 +20 1016.4 852.8 0.0
15 15.10 СЗ 3 10 км 4/1 1050 м
[Sc diur, vesp Ci sp]
+15.9 +0.9 36 +16 +16 1017.7 853.3 +21.2
18 15.10 ЮВ 2 10 км 4/0
[Ci sp]
+10.9 +0.9 50 +10 +10 1017.3 854.1
21 15.10 В 3 10 км 3/0
[Ci sp]
+8.4 -0.2 55 +6 +6 1017.3 853.8
00 16.10 ЮВ 2 10 км 3/0
[Ci sp]
+6.2 -1.1 59 +4 +4 1018.1 853.6
03 16.10 ЮВ 4 10 км 8/1 1200 м
[Cu hum Ac As Ci fib]
+6.9 -1.1 57 +4 +4 1020.2 854.8 +5.3
06 16.10 штиль 0 15 км 4/3 1200 м
[Sc diur, vesp Ac lent Ci fib]
+18.0 -1.9 26 +18 +25 1019.9 856.1
09 16.10 С 5 20 км 1/1 1050 м
[Cu hum Ac lent]
+19.7 -2.6 22 +19 +25 1018.6 854.8
12 16.10 С 7 20 км 1/1 1050 м
[Sc diur, vesp]
+19.7 -3.4 21 +19 +20 1018.7 854.3
15 16.10 С 6 15 км ясно +15.7 -2.6 28 +15 +15 1020.4 854.9 +21.0
18 16.10 ЮВ 2 12 км ясно +11.2 -4.6 33 +11 +11 1020.0 856.2
21 16.10 ЮВ 2 12 км ясно +6.4 -5.9 41 +5 +5 1019.8 855.6
00 17.10 ЮВ 2 10 км ясно +5.1 -5.3 47 +3 +3 1020.5 855.5
03 17.10 ЮВ 3 12 км ясно +5.0 -4.0 52 +2 +2 1022.6 856.2 +3.9
06 17.10 штиль 0 18 км ясно +16.3 -0.8 31 +16 +27 1020.6 856.4
09 17.10 штиль 0 20 км ясно +20.3 -3.3 20 +20 +34 опасность
простуды
1018.2 854.1
12 17.10 СЗ 5 20 км 1/1 1000 м
[Cu hum Ac trans]
+20.1 -5.7 17 +20 +21 1017.2 852.8
15 17.10 СЗ 4 12 км ясно +15.7 -4.3 25 +15 +15 1019.0 853.2 +21.0
18 17.10 СВ 3 10 км ясно +12.7 -4.1 31 +12 +12 1017.4 854.0
21 17.10 В 2 10 км ясно +6.8 -7.3 36 +5 +5 1016.7 853.2
00 18.10 ЮВ 3 10 км ясно +4.9 -6.8 42 +2 +2 1017.4 852.9
03 18.10 ЮВ 3 12 км 1/0
[Ac trans]
+4.2 -6.3 46 +1 +1 1019.7 853.5 +3.2
06 18.10 штиль 0 12 км 1/0
[Ac trans]
+17.2 -3.9 23 +17 +27 1017.3 854.2
09 18.10 З 6 12 км ясно +19.9 -7.5 15 +19 +23 1016.3 852.4
12 18.10 С 7 12 км 1/0
[Ci fib]
+19.9 -7.5 15 +19 +20 1016.1 851.7
15 18.10 С 3 12 км ясно +15.3 -6.8 21 +15 +15 1018.4 852.3 +21.1
18 18.10 СВ 3 12 км ясно +11.7 -6.5 27 +11 +11 1017.2 853.8
21 18.10 ЮВ 3 12 км ясно +6.8 -8.2 33 +5 +5 1017.2 853.5
00 19.10 В 3 12 км ясно +5.5 -8.8 35 +3 +3 1018.6 854.0
03 19.10 В 4 15 км ясно +5.0 -8.4 37 +2 +2 1021.3 854.9 +3.3
06 19.10 Ю 2 20 км ясно +16.6 -5.2 22 +17 +25 1019.7 855.7
09 19.10 С 2 20 км ясно +19.7 -8.5 14 +20 +30 1018.3 854.0
12 19.10 штиль 0 20 км ясно +21.7 -10.0 11 +20 +23 1017.0 853.0
15 19.10 штиль 0 15 км ясно +15.7 -10.9 15 +16 +16 1020.1 854.0 +22.4
18 19.10 ЮВ 3 12 км ясно +10.2 -8.3 26 +9 +9 1019.5 855.1
21 19.10 В 3 10 км ясно +7.2 -9.3 30 +5 +5 1018.4 855.1
00 20.10 В 3 10 км ясно +5.9 -9.4 32 +4 +4 1018.6 854.5
03 20.10 В 4 10 км 1/0
[Ci fib]
+6.2 -9.4 32 +3 +3 1021.6 855.6 +4.3
06 20.10 штиль 0 15 км ясно +18.4 -6.5 18 +18 +29 1019.8 855.8
09 20.10 СЗ 5 20 км 1/0
[Cs]
+21.5 -15.8 7 +20 +25 1017.7 854.0
12 20.10 СЗ 3 20 км 1/0
[Ci sp]
+21.9 -12.3 9 +20 +22 1017.1 853.3
15 20.10 СЗ 4 15 км 3/0
[Ci sp]
+16.5 -12.7 12 +16 +16 1019.7 854.2 +22.8
18 20.10 ЮВ 2 12 км 3/0
[Ci sp]
+11.9 -13.1 16 +12 +12 1018.2 854.8
21 20.10 В 2 12 км 1/0
[Ci fib]
+8.4 -13.2 20 +8 +8 1017.6 854.2
00 21.10 В 2 12 км 3/0
[Ci fib]
+7.8 -12.9 21 +7 +7 1017.6 854.2
03 21.10 ЮВ 2 10 км 4/3 1200 м
[Sc Ac trans Ci fib]
+8.2 -11.9 23 +7 +7 1019.7 854.7 +6.3
06 21.10 штиль 0 15 км 6/3 1200 м
[Cu hum Ac trans]
+20.1 -8.2 14 +19 +25 1018.6 855.6
09 21.10 СЗ 6 12 км 9/6 1050 м
[Cb calv Ac As]
+23.0 -2.5 18 +22 +22 комфорт 1016.9 854.2
12 21.10 З 6 15 км 6/3 1200 м
[Sc diur, vesp Ac lent]
+23.8 -2.7 17 +22 +23 комфорт 1015.8 853.4

 

Местоположение метеостанции Birjand (Иран): широта 32.87 долгота 59.20 высота над уровнем моря 1491 м.

В архиве по умолчанию представлена погода в Birjand за последнюю неделю. Архивные данные за месяц целиком и за предыдущие месяцы, начиная с января 2011 года, Вы можете получить, выбрав интересующий диапазон дат из раскрывающегося списка и нажав кнопку "Ввод!".


*Определитесь, кто Вы:
робот инопланетянин человек

Внимание! Время в таблицах - всемирное. Для получения местного времени необходимо прибавить поправку, которая в Birjand равна 3.5 ч.

Смотрите также архив погоды в соседних городах и на ближайших метеорологических станциях:

Погода в Ferdous (Иран) (160 км)
Погода в Nehbandan (Иран) (168 км)
Погода в Tabas (Иран) (227 км)
Погода в Torbat-Heydarieh (Иран) (267 км)
Погода в Kashmar (Иран) (268 км)
Погода в Zabol (Иран) (295 км)
Погода в Herat (Афганистан) (318 км)
Погода в Kerman (Иран) (360 км)
Погода в Mashhad (Иран) (380 км)
Погода в Серхетабаде (Марыйский велаят, Туркменистан) (395 км)

Пояснения к столбцам:

Ветер - указаны скорость ветра в м/с - средняя за 10 мин, порывы в срок и между сроками (в фигурных скобках) и направление, откуда дует ветер: С - северный, СВ - северо-восточный, В - восточный, ЮВ - юго-восточный, Ю - южный, ЮЗ - юго-западный, З - западный, СЗ - северо-западный.
Видимость - горизонтальная дальность видимости в метрах или километрах. При видимости от 1 до 10 км при отсутствии осадков обычно наблюдается дымка, при ухудшении видимости до 1 км и менее - туман. В сухую погоду видимость может ухудшаться дымом, пылью или мглою.
Явления - указаны атмосферные явления, наблюдавшиеся в срок или в последний час перед сроком; фигурными скобками обозначены явления, наблюдавшиеся между сроками (за 1-3 часа до срока); квадратными скобками обозначены град или гололедные отложения с указанием их диаметра в мм.
Облачность - указаны через наклонную черту общая и нижняя облачность в баллах и высота нижней границы облаков в метрах; квадратными скобками обозначены формы облаков: Ci - перистые, Cs - перисто-слоистые, Cc - перисто-кучевые, Ac - высококучевые, As - высокослоистые, Sc - слоисто-кучевые, Ns - слоисто-дождевые, Cu - кучевые, Cb - кучево-дождевые. Подробнее классификацию облаков см. в Атласе облаков (PDF).
T - Температура воздуха - температура, измеренная на высоте 2 м над землей.
Td - Температура точки росы - температура, при понижении до которой содержащийся в воздухе водяной пар достигнет насыщения.
f - Относительная влажность воздуха - влажноcть воздуха, измеренная на высоте 2 м над землей.
Te - Эффективная температура - температура, которую ощущает одетый по сезону человек в тени. Характеристика душности погоды. При расчете учитывается влияние влажности воздуха и скорости ветра на теплоощущения человека.
Tes - Эффективная температура на солнце - температура, которую ощущает человек, с поправкой на солнечный нагрев. Характеристика знойности погоды. Зависит от высоты солнца над горизонтом, облачности и скорости ветра. Ночью, в пасмурную погоду, а также при ветре 12 м/с и более поправка равна нулю.
P - Атмосферное давление - приведенное к уровню моря атмосферное давление.
Po - Атмосферное давление - измеренное на уровне метеостанции атмосферное давление.
Tmin - Минимальная температура - минимум температуры воздуха на высоте 2 м над землей.
Tmax - Максимальная температура - максимум температуры воздуха на высоте 2 м над землей.
R - Количество осадков - Количество выпавших осадков за период времени, мм. При наведении курсора мыши на число - период времени, за который выпало указанное количество осадков.
R24 - Количество осадков - Количество выпавших осадков за 24 часа, мм.
S - Снежный покров - Высота снежного покрова, см. При наведении курсора мыши на число - состояние снежного покрова и степень покрытия местности в баллах.